Regional Weather Roundup
Issued by NWS

Home | Current Version | Previous Version | Graphics & Text | Print | Product List | Glossary On
Versions: 1 2 3 4 5 6 7 8 9 10 11 12 13 14 15 16 17 18 19 20 21 22 23 24 25 26 27 28 29 30 31 32 33 34 35 36 37 38 39 40 41 42 43 44 45 46 47 48 49 50
261
ASUS43 KMKX 240610
RWRWI

WISCONSIN REGIONAL WEATHER ROUNDUP
NATIONAL WEATHER SERVICE MILWAUKEE/SULLIVAN WI
1200 AM CST TUE JAN 24 2017

NOTE: "FAIR" INDICATES FEW OR NO CLOUDS BELOW 12,000 FEET WITH NO
SIGNIFICANT WEATHER AND/OR OBSTRUCTIONS TO VISIBILITY.

WIZ001-002-006>008-014>016-023>028-240700-
NORTHWEST WISCONSIN

CITY           SKY/WX    TMP DP  RH WIND       PRES   REMARKS
SUPERIOR ARPT  CLOUDY    33  32  98 SW3       29.83S
6HR MIN TEMP:  33; 6HR MAX TEMP:  35;

ASHLAND        CLOUDY    34  33  96 SW7       29.82S WCI  28
6HR MIN TEMP:  32; 6HR MAX TEMP:  35;

HAYWARD        CLOUDY    33  32  96 CALM      29.82R FOG
6HR MIN TEMP:  33; 6HR MAX TEMP:  35; 6HR PCP: TRACE;

SIREN          LGT SNOW  32  32  99 CALM      29.84S
6HR MIN TEMP:  32; 6HR MAX TEMP:  33;

CUMBERLAND     CLOUDY    32  32 100 W3        29.83S FOG
RICE LAKE      CLOUDY    33  32  96 W3        29.85R
6HR MIN TEMP:  33; 6HR MAX TEMP:  34;

CHETEK         CLOUDY    32  32 100 CALM      29.84S
6HR MIN TEMP:  32; 6HR MAX TEMP:  32;

LADYSMITH      CLOUDY    33  33  99 CALM      29.83F
6HR MIN TEMP:  33; 6HR MAX TEMP:  35;

EAU CLAIRE     CLOUDY    33  32  96 CALM      29.83S FOG
6HR MIN TEMP:  33; 6HR MAX TEMP:  34;

MENOMONIE        N/A    N/A N/A N/A MISG        N/A
NEW RICHMOND   CLOUDY    32  32 100 NW3       29.84F FOG
6HR MIN TEMP:  32; 6HR MAX TEMP:  33;

OSCEOLA        CLOUDY    32  32 100 CALM      29.87S FOG
6HR MIN TEMP:  32; 6HR MAX TEMP:  33;

$$

WIZ003>005-009-010-017-018-240700-
NORTH CENTRAL WISCONSIN

CITY           SKY/WX    TMP DP  RH WIND       PRES   REMARKS
MANITOWISH WTR CLOUDY    32  32 100 NW3       29.78S
6HR MIN TEMP:  32; 6HR MAX TEMP:  33;

ARBOR VITAE    FOG       37  36  96 CALM      29.78S VSB 1/2
6HR MIN TEMP:  37; 6HR MAX TEMP:  37;

WOODRUFF       FOG       37  36  96 CALM      29.78S VSB 1/2
6HR MIN TEMP:  37; 6HR MAX TEMP:  37;

RHINELANDER    CLOUDY    35  35 100 CALM      29.78S
6HR MIN TEMP:  35; 6HR MAX TEMP:  36;

EAGLE RIVER    FOG       33  33 100 W3        29.77S VSB 3/4
6HR MIN TEMP:  33; 6HR MAX TEMP:  34;

LAND O LAKES   FOG       34  34 100 CALM      29.78F VSB 1/2
6HR MIN TEMP:  34; 6HR MAX TEMP:  35;

PHILLIPS       CLOUDY    32  32 100 CALM      29.79S
6HR MIN TEMP:  32; 6HR MAX TEMP:  33;

TOMAHAWK       FOG       33  32  97 CALM      29.80R VSB 1
6HR MIN TEMP:  33; 6HR MAX TEMP:  34;

MEDFORD        CLOUDY    32  31  96 NW5       29.79F WCI  27
6HR MIN TEMP:  32; 6HR MAX TEMP:  33;

MERRILL        CLOUDY    34  34 100 CALM        N/A
6HR MIN TEMP:  34; 6HR MAX TEMP:  35;

$$

WIZ029-030-035-036-043>047-240700-
CENTRAL WISCONSIN

CITY           SKY/WX    TMP DP  RH WIND       PRES   REMARKS
WAUSAU         CLOUDY    34  34 100 NW5       29.79R WCI  30
6HR MIN TEMP:  33; 6HR MAX TEMP:  35;

MOSINEE        FOG       32  32 100 NW6       29.80S VSB 3/4 WCI  26
MARSHFIELD     CLOUDY    33  31  92 NW7       29.79F WCI  27
6HR MIN TEMP:  33; 6HR MAX TEMP:  34;

STEVENS POINT  FOG       32  32 100 NW3       29.81S VSB 1/2
6HR MIN TEMP:  32; 6HR MAX TEMP:  33;

WAUPACA        CLOUDY    37  35  95 CALM      29.81S FOG
6HR MIN TEMP:  37; 6HR MAX TEMP:  38;

WAUTOMA        CLOUDY    34  34 100 W5        29.82S FOG     WCI  30
6HR MIN TEMP:  34; 6HR MAX TEMP:  36;

WISC RAPIDS    CLOUDY    34  34 100 NW5       29.82S FOG     WCI  30
6HR MIN TEMP:  34; 6HR MAX TEMP:  36;

CAMP DOUGLAS   CLOUDY    33  32  98 W5        29.83S WCI  28
6HR MIN TEMP:  33; 6HR MAX TEMP:  35;

$$

WIZ011>013-019>022-031-037>040-048>050-240700-
NORTHEAST WISCONSIN

CITY           SKY/WX    TMP DP  RH WIND       PRES   REMARKS
ANTIGO         CLOUDY    33  33 100 NW5       29.78S WCI  29
6HR MIN TEMP:  33; 6HR MAX TEMP:  35;

SHAWANO        CLOUDY    35  33  93 CALM      29.80S
6HR MIN TEMP:  35; 6HR MAX TEMP:  38;

OCONTO         CLOUDY    35  34  99 CALM      29.79F VSB 1/2
6HR MIN TEMP:  33; 6HR MAX TEMP:  36;

STURGEON BAY   FOG       33  33 100 W3        29.79F VSB 1
6HR MIN TEMP:  33; 6HR MAX TEMP:  35;

GREEN BAY      CLOUDY    36  35  96 W3        29.80S
6HR MIN TEMP:  35; 6HR MAX TEMP:  38;

MANITOWOC      CLOUDY    36  34  92 CALM      29.80S
6HR MIN TEMP:  34; 6HR MAX TEMP:  37;

APPLETON       CLOUDY    32  32 100 W6        29.77F WCI  26
CLINTONVILLE   CLOUDY    34  34 100 W3        29.80S
OSHKOSH        CLOUDY    35  32  88 W7        29.79S WCI  29
6HR MIN TEMP:  34; 6HR MAX TEMP:  36;

$$

WIZ032>034-041-042-053>061-240700-
SOUTHWEST WISCONSIN

CITY           SKY/WX    TMP DP  RH WIND       PRES   REMARKS
LA CROSSE      CLOUDY    37  32  82 CALM      29.86R
6HR MIN TEMP:  35; 6HR MAX TEMP:  37;

SPARTA         CLOUDY    32  32 100 CALM      29.85S FOG
6HR MIN TEMP:  32; 6HR MAX TEMP:  33;

VIROQUA        CLOUDY    32  32 100 CALM      29.83S
6HR MIN TEMP:  32; 6HR MAX TEMP:  33;

BOSCOBEL       CLOUDY    35  32  88 CALM      29.86S
6HR MIN TEMP:  35; 6HR MAX TEMP:  38;

PRAIRIE DU CHI CLOUDY    33  31  93 CALM      29.86S
6HR MIN TEMP:  33; 6HR MAX TEMP:  36;

PLATTEVILLE    CLOUDY    35  33  93 CALM      29.85S
6HR MIN TEMP:  34; 6HR MAX TEMP:  36;

$$

WIZ056-057-062-063-064-067-068-240700-
SOUTH CENTRAL WISCONSIN

CITY           SKY/WX    TMP DP  RH WIND       PRES   REMARKS
REEDSBURG      CLOUDY    34  33  97 W5        29.83S WCI  30
6HR MIN TEMP:  34; 6HR MAX TEMP:  35;

BARABOO/DELLS  CLOUDY    33  32  95 W5        29.82S WCI  29
6HR MIN TEMP:  33; 6HR MAX TEMP:  35;

LONE ROCK      CLOUDY    35  31  85 SW5       29.85S WCI  31
6HR MIN TEMP:  34; 6HR MAX TEMP:  37;

MINERAL POINT  CLOUDY    34  34 100 CALM      29.83S
MADISON        CLOUDY    36  32  85 CALM      29.83S
6HR MIN TEMP:  35; 6HR MAX TEMP:  38;

MIDDLETON      CLOUDY    36  36 100 CALM      29.83S
6HR MIN TEMP:  36; 6HR MAX TEMP:  38;

WATERTOWN      CLOUDY    34  34 100 W6        29.81S FOG     WCI  29
6HR MIN TEMP:  34; 6HR MAX TEMP:  37;

MONROE         CLOUDY    34  32  93 CALM      29.83R
JANESVILLE     CLOUDY    36  36 100 NW3       29.83S
$$

WIZ051-052-058>065-066-070>072-240700-
SOUTHEAST WISCONSIN

CITY           SKY/WX    TMP DP  RH WIND       PRES   REMARKS
MILWAUKEE      CLOUDY    39  34  82 NW5       29.80F
6HR MIN TEMP:  39; 6HR MAX TEMP:  41;

WAUKESHA       CLOUDY    34  32  93 W6        29.81S FOG     WCI  29
MILWAUKEE/TIMM CLOUDY    34  32  93 CALM      29.81S
RACINE         CLOUDY    37  34  89 W3        29.81F
6HR MIN TEMP:  37; 6HR MAX TEMP:  39;

KENOSHA        CLOUDY    37  34  89 NW5       29.80F WCI  33
6HR MIN TEMP:  37; 6HR MAX TEMP:  38;

FOND DU LAC    CLOUDY    35  32  88 CALM      29.80S
6HR MIN TEMP:  35; 6HR MAX TEMP:  37; 6HR PCP: TRACE;

SHEBOYGAN      CLOUDY    34  32  92 CALM      29.79F
6HR MIN TEMP:  34; 6HR MAX TEMP:  36;

WEST BEND      CLOUDY    34  34 100 CALM      29.79F
JUNEAU         FOG       34  33  99 W3        29.81F VSB 1/4
6HR MIN TEMP:  34; 6HR MAX TEMP:  36;

$$

LSZ147-162-240700-
LAKE SUPERIOR

STATION/POSITION TIME  TEMP    WIND        PRES    WAVE
                       AIR SEA DIR/SP/G            HT/PER
                 (UTC) (F)     (DEG/KT/KT) (MB)    (FT/S)
DEVILS ISLAND    0500   34     250/  9/  9 1010.2R
PORT WING        0540   34     210/  3/  4 1010.2S
SAXON HARBOR     0540   33     200/  4/  5 1009.5F
$$

LMZ867-665-643>646-240700-
LAKE MICHIGAN

STATION/POSITION TIME  TEMP    WIND        PRES    WAVE
                       AIR SEA DIR/SP/G            HT/PER
                 (UTC) (F)     (DEG/KT/KT) (MB)    (FT/S)
NORTHPORT PIER   0540   33        CALM     1008.8F
SISTER BAY       0535   33        CALM       N/A
KEWAUNEE LAK



USA.gov is the U.S. government's official web portal to all federal, state and local government web resources and services.